Year,Month,Day,Hour,Minute,Value (Times are PST for temperature in C)
2021,06,29,00,00,25.10
2021,06,29,00,01,25.10
2021,06,29,00,02,25.10
2021,06,29,00,03,25.00
2021,06,29,00,04,25.00
2021,06,29,00,05,25.00
2021,06,29,00,06,24.90
2021,06,29,00,07,24.90
2021,06,29,00,08,24.90
2021,06,29,00,09,24.90
2021,06,29,00,10,24.90
2021,06,29,00,11,24.80
2021,06,29,00,12,24.80
2021,06,29,00,13,24.80
2021,06,29,00,14,24.80
2021,06,29,00,15,24.80
2021,06,29,00,16,24.80
2021,06,29,00,17,24.80
2021,06,29,00,18,24.80
2021,06,29,00,19,24.80
2021,06,29,00,20,24.80
2021,06,29,00,21,24.80
2021,06,29,00,22,24.80
2021,06,29,00,23,24.80
2021,06,29,00,24,24.80
2021,06,29,00,25,24.80
2021,06,29,00,26,24.80
2021,06,29,00,27,24.80
2021,06,29,00,28,24.80
2021,06,29,00,29,24.70
2021,06,29,00,30,24.70
2021,06,29,00,31,24.70
2021,06,29,00,32,24.70
2021,06,29,00,33,24.70
2021,06,29,00,34,24.70
2021,06,29,00,35,24.70
2021,06,29,00,36,24.70
2021,06,29,00,37,24.70
2021,06,29,00,38,24.70
2021,06,29,00,39,24.70
2021,06,29,00,40,24.70
2021,06,29,00,41,24.60
2021,06,29,00,42,24.60
2021,06,29,00,43,24.60
2021,06,29,00,44,24.60
2021,06,29,00,45,24.60
2021,06,29,00,46,24.60
2021,06,29,00,47,24.60
2021,06,29,00,48,24.50
2021,06,29,00,49,24.50
2021,06,29,00,50,24.50
2021,06,29,00,51,24.50
2021,06,29,00,52,24.50
2021,06,29,00,53,24.50
2021,06,29,00,54,24.40
2021,06,29,00,55,24.40
2021,06,29,00,56,24.40
2021,06,29,00,57,24.40
2021,06,29,00,58,24.40
2021,06,29,00,59,24.40
2021,06,29,01,00,24.30
2021,06,29,01,01,24.30
2021,06,29,01,02,24.30
2021,06,29,01,03,24.30
2021,06,29,01,04,24.30
2021,06,29,01,05,24.20
2021,06,29,01,06,24.20
2021,06,29,01,07,24.20
2021,06,29,01,08,24.20
2021,06,29,01,09,24.10
2021,06,29,01,10,24.10
2021,06,29,01,11,24.10
2021,06,29,01,12,24.10
2021,06,29,01,13,24.10
2021,06,29,01,14,24.10
2021,06,29,01,15,24.10
2021,06,29,01,16,24.00
2021,06,29,01,17,23.90
2021,06,29,01,18,23.90
2021,06,29,01,19,23.90
2021,06,29,01,20,23.90
2021,06,29,01,21,23.90
2021,06,29,01,22,23.90
2021,06,29,01,23,23.90
2021,06,29,01,24,23.90
2021,06,29,01,25,23.90
2021,06,29,01,26,23.90
2021,06,29,01,27,23.90
2021,06,29,01,28,23.90
2021,06,29,01,29,23.80
2021,06,29,01,30,23.80
2021,06,29,01,31,23.80
2021,06,29,01,32,23.80
2021,06,29,01,33,23.80
2021,06,29,01,34,23.80
2021,06,29,01,35,23.80
2021,06,29,01,36,23.80
2021,06,29,01,37,23.80
2021,06,29,01,38,23.70
2021,06,29,01,39,23.70
2021,06,29,01,40,23.70
2021,06,29,01,41,23.70
2021,06,29,01,42,23.70
2021,06,29,01,43,23.70
2021,06,29,01,44,23.70
2021,06,29,01,45,23.70
2021,06,29,01,46,23.70
2021,06,29,01,47,23.70
2021,06,29,01,48,23.70
2021,06,29,01,49,23.70
2021,06,29,01,50,23.70
2021,06,29,01,51,23.70
2021,06,29,01,52,23.60
2021,06,29,01,53,23.60
2021,06,29,01,54,23.60
2021,06,29,01,55,23.60
2021,06,29,01,56,23.60
2021,06,29,01,57,23.60
2021,06,29,01,58,23.60
2021,06,29,01,59,23.50
2021,06,29,02,00,23.40
2021,06,29,02,01,23.40
2021,06,29,02,02,23.40
2021,06,29,02,03,23.40
2021,06,29,02,04,23.40
2021,06,29,02,05,23.40
2021,06,29,02,06,23.40
2021,06,29,02,07,23.30
2021,06,29,02,08,23.30
2021,06,29,02,09,23.30
2021,06,29,02,10,23.30
2021,06,29,02,11,23.30
2021,06,29,02,12,23.30
2021,06,29,02,13,23.30
2021,06,29,02,14,23.30
2021,06,29,02,15,23.30
2021,06,29,02,16,23.30
2021,06,29,02,17,23.30
2021,06,29,02,18,23.30
2021,06,29,02,19,23.30
2021,06,29,02,20,23.20
2021,06,29,02,21,23.20
2021,06,29,02,22,23.20
2021,06,29,02,23,23.20
2021,06,29,02,24,23.20
2021,06,29,02,25,23.10
2021,06,29,02,26,23.10
2021,06,29,02,27,23.00
2021,06,29,02,28,22.90
2021,06,29,02,29,22.90
2021,06,29,02,30,22.80
2021,06,29,02,31,22.70
2021,06,29,02,32,22.70
2021,06,29,02,33,22.60
2021,06,29,02,34,22.60
2021,06,29,02,35,22.60
2021,06,29,02,36,22.60
2021,06,29,02,37,22.60
2021,06,29,02,38,22.50
2021,06,29,02,39,22.50
2021,06,29,02,40,22.50
2021,06,29,02,41,22.50
2021,06,29,02,42,22.40
2021,06,29,02,43,22.30
2021,06,29,02,44,22.30
2021,06,29,02,45,22.20
2021,06,29,02,46,22.20
2021,06,29,02,47,22.10
2021,06,29,02,48,22.10
2021,06,29,02,49,22.10
2021,06,29,02,50,22.10
2021,06,29,02,51,22.10
2021,06,29,02,52,22.10
2021,06,29,02,53,22.10
2021,06,29,02,54,22.10
2021,06,29,02,55,22.10
2021,06,29,02,56,22.10
2021,06,29,02,57,22.10
2021,06,29,02,58,22.10
2021,06,29,02,59,22.10
2021,06,29,03,00,22.20
2021,06,29,03,01,22.20
2021,06,29,03,02,22.10
2021,06,29,03,03,22.10
2021,06,29,03,04,22.10
2021,06,29,03,05,22.10
2021,06,29,03,06,22.10
2021,06,29,03,07,22.10
2021,06,29,03,08,22.00
2021,06,29,03,09,22.00
2021,06,29,03,10,21.90
2021,06,29,03,11,21.90
2021,06,29,03,12,21.80
2021,06,29,03,13,21.80
2021,06,29,03,14,21.80
2021,06,29,03,15,21.70
2021,06,29,03,16,21.70
2021,06,29,03,17,21.70
2021,06,29,03,18,21.70
2021,06,29,03,19,21.70
2021,06,29,03,20,21.70
2021,06,29,03,21,21.70
2021,06,29,03,22,21.70
2021,06,29,03,23,21.70
2021,06,29,03,24,21.70
2021,06,29,03,25,21.70
2021,06,29,03,26,21.70
2021,06,29,03,27,21.70
2021,06,29,03,28,21.70
2021,06,29,03,29,21.70
2021,06,29,03,30,21.70
2021,06,29,03,31,21.70
2021,06,29,03,32,21.70
2021,06,29,03,33,21.70
2021,06,29,03,34,21.70
2021,06,29,03,35,21.70
2021,06,29,03,36,21.60
2021,06,29,03,37,21.60
2021,06,29,03,38,21.60
2021,06,29,03,39,21.60
2021,06,29,03,40,21.60
2021,06,29,03,41,21.60
2021,06,29,03,42,21.60
2021,06,29,03,43,21.60
2021,06,29,03,44,21.60
2021,06,29,03,45,21.60
2021,06,29,03,46,21.60
2021,06,29,03,47,21.60
2021,06,29,03,48,21.60
2021,06,29,03,49,21.60
2021,06,29,03,50,21.60
2021,06,29,03,51,21.60
2021,06,29,03,52,21.60
2021,06,29,03,53,21.60
2021,06,29,03,54,21.60
2021,06,29,03,55,21.60
2021,06,29,03,56,21.60
2021,06,29,03,57,21.40
2021,06,29,03,58,21.40
2021,06,29,03,59,21.40
2021,06,29,04,00,21.40
2021,06,29,04,01,21.40
2021,06,29,04,02,21.40
2021,06,29,04,03,21.40
2021,06,29,04,04,21.30
2021,06,29,04,05,21.30
2021,06,29,04,06,21.30
2021,06,29,04,07,21.30
2021,06,29,04,08,21.30
2021,06,29,04,09,21.30
2021,06,29,04,10,21.30
2021,06,29,04,11,21.30
2021,06,29,04,12,21.30
2021,06,29,04,13,21.30
2021,06,29,04,14,21.30
2021,06,29,04,15,21.20
2021,06,29,04,16,21.20
2021,06,29,04,17,21.20
2021,06,29,04,18,21.20
2021,06,29,04,19,21.20
2021,06,29,04,20,21.20
2021,06,29,04,21,21.20
2021,06,29,04,22,21.20
2021,06,29,04,23,21.20
2021,06,29,04,24,21.20
2021,06,29,04,25,21.20
2021,06,29,04,26,21.10
2021,06,29,04,27,21.10
2021,06,29,04,28,21.10
2021,06,29,04,29,21.10
2021,06,29,04,30,21.10
2021,06,29,04,31,21.10
2021,06,29,04,32,21.10
2021,06,29,04,33,21.10
2021,06,29,04,34,21.10
2021,06,29,04,35,21.10
2021,06,29,04,36,21.10
2021,06,29,04,37,21.10
2021,06,29,04,38,21.00
2021,06,29,04,39,21.00
2021,06,29,04,40,21.00
2021,06,29,04,41,21.00
2021,06,29,04,42,21.00
2021,06,29,04,43,21.00
2021,06,29,04,44,21.00
2021,06,29,04,45,21.00
2021,06,29,04,46,21.00
2021,06,29,04,47,21.00
2021,06,29,04,48,21.00
2021,06,29,04,49,21.00
2021,06,29,04,50,21.00
2021,06,29,04,51,21.00
2021,06,29,04,52,20.90
2021,06,29,04,53,20.90
2021,06,29,04,54,20.90
2021,06,29,04,55,20.90
2021,06,29,04,56,20.90
2021,06,29,04,57,20.90
2021,06,29,04,58,20.90
2021,06,29,04,59,20.90
2021,06,29,05,00,20.90
2021,06,29,05,01,20.90
2021,06,29,05,02,20.90
2021,06,29,05,03,20.80
2021,06,29,05,04,20.80
2021,06,29,05,05,20.80
2021,06,29,05,06,20.80
2021,06,29,05,07,20.80
2021,06,29,05,08,20.80
2021,06,29,05,09,20.80
2021,06,29,05,10,20.80
2021,06,29,05,11,20.90
2021,06,29,05,12,20.90
2021,06,29,05,13,20.90
2021,06,29,05,14,20.90
2021,06,29,05,15,20.90
2021,06,29,05,16,20.90
2021,06,29,05,17,20.90
2021,06,29,05,18,20.90
2021,06,29,05,19,20.90
2021,06,29,05,20,20.90
2021,06,29,05,21,20.90
2021,06,29,05,22,20.90
2021,06,29,05,23,20.90
2021,06,29,05,24,20.90
2021,06,29,05,25,20.80
2021,06,29,05,26,20.90
2021,06,29,05,27,20.90
2021,06,29,05,28,20.80
2021,06,29,05,29,20.80
2021,06,29,05,30,20.80
2021,06,29,05,31,20.80
2021,06,29,05,32,20.80
2021,06,29,05,33,20.80
2021,06,29,05,34,20.80
2021,06,29,05,35,20.80
2021,06,29,05,36,20.80
2021,06,29,05,37,20.80
2021,06,29,05,38,20.80
2021,06,29,05,39,20.80
2021,06,29,05,40,20.80
2021,06,29,05,41,20.70
2021,06,29,05,42,20.70
2021,06,29,05,43,20.70
2021,06,29,05,44,20.70
2021,06,29,05,45,20.70
2021,06,29,05,46,20.70
2021,06,29,05,47,20.70
2021,06,29,05,48,20.60
2021,06,29,05,49,20.60
2021,06,29,05,50,20.60
2021,06,29,05,51,20.50
2021,06,29,05,52,20.50
2021,06,29,05,53,20.50
2021,06,29,05,54,20.40
2021,06,29,05,55,20.40
2021,06,29,05,56,20.30
2021,06,29,05,57,20.30
2021,06,29,05,58,20.30
2021,06,29,05,59,20.30
2021,06,29,06,00,20.20
2021,06,29,06,01,20.20
2021,06,29,06,02,20.20
2021,06,29,06,03,20.20
2021,06,29,06,04,20.20
2021,06,29,06,05,20.20
2021,06,29,06,06,20.20
2021,06,29,06,07,20.20
2021,06,29,06,08,20.20
2021,06,29,06,09,20.20
2021,06,29,06,10,20.20
2021,06,29,06,11,20.20
2021,06,29,06,12,20.30
2021,06,29,06,13,20.30
2021,06,29,06,14,20.30
2021,06,29,06,15,20.30
2021,06,29,06,16,20.40
2021,06,29,06,17,20.40
2021,06,29,06,18,20.50
2021,06,29,06,19,20.50
2021,06,29,06,20,20.60
2021,06,29,06,21,20.70
2021,06,29,06,22,20.80
2021,06,29,06,23,20.80
2021,06,29,06,24,20.90
2021,06,29,06,25,20.90
2021,06,29,06,26,21.00
2021,06,29,06,27,21.00
2021,06,29,06,28,21.10
2021,06,29,06,29,21.10
2021,06,29,06,30,21.10
2021,06,29,06,31,21.10
2021,06,29,06,32,21.10
2021,06,29,06,33,21.10
2021,06,29,06,34,21.10
2021,06,29,06,35,21.10
2021,06,29,06,36,21.10
2021,06,29,06,37,21.10
2021,06,29,06,38,21.10
2021,06,29,06,39,21.10
2021,06,29,06,40,21.00
2021,06,29,06,41,21.00
2021,06,29,06,42,20.90
2021,06,29,06,43,20.90
2021,06,29,06,44,20.90
2021,06,29,06,45,20.90
2021,06,29,06,46,20.80
2021,06,29,06,47,20.80
2021,06,29,06,48,20.80
2021,06,29,06,49,20.80
2021,06,29,06,50,20.80
2021,06,29,06,51,20.80
2021,06,29,06,52,20.90
2021,06,29,06,53,20.90
2021,06,29,06,54,20.90
2021,06,29,06,55,20.80
2021,06,29,06,56,20.80
2021,06,29,06,57,20.80
2021,06,29,06,58,20.80
2021,06,29,06,59,20.80
2021,06,29,07,00,20.80
2021,06,29,07,01,20.80
2021,06,29,07,02,20.80
2021,06,29,07,03,20.80
2021,06,29,07,04,20.90
2021,06,29,07,05,20.90
2021,06,29,07,06,20.90
2021,06,29,07,07,21.00
2021,06,29,07,08,21.00
2021,06,29,07,09,21.10
2021,06,29,07,10,21.10
2021,06,29,07,11,21.20
2021,06,29,07,12,21.20
2021,06,29,07,13,21.30
2021,06,29,07,14,21.30
2021,06,29,07,15,21.30
2021,06,29,07,16,21.30
2021,06,29,07,17,21.30
2021,06,29,07,18,21.40
2021,06,29,07,19,21.40
2021,06,29,07,20,21.40
2021,06,29,07,21,21.50
2021,06,29,07,22,21.60
2021,06,29,07,23,21.60
2021,06,29,07,24,21.60
2021,06,29,07,25,21.60
2021,06,29,07,26,21.60
2021,06,29,07,27,21.60
2021,06,29,07,28,21.60
2021,06,29,07,29,21.70
2021,06,29,07,30,21.80
2021,06,29,07,31,21.80
2021,06,29,07,32,21.90
2021,06,29,07,33,21.90
2021,06,29,07,34,21.90
2021,06,29,07,35,21.90
2021,06,29,07,36,21.90
2021,06,29,07,37,21.90
2021,06,29,07,38,21.90
2021,06,29,07,39,21.90
2021,06,29,07,40,21.90
2021,06,29,07,41,21.90
2021,06,29,07,42,22.00
2021,06,29,07,43,22.00
2021,06,29,07,44,22.00
2021,06,29,07,45,22.10
2021,06,29,07,46,22.10
2021,06,29,07,47,22.10
2021,06,29,07,48,22.10
2021,06,29,07,49,22.20
2021,06,29,07,50,22.20
2021,06,29,07,51,22.10
2021,06,29,07,52,22.20
2021,06,29,07,53,22.20
2021,06,29,07,54,22.30
2021,06,29,07,55,22.40
2021,06,29,07,56,22.50
2021,06,29,07,57,22.50
2021,06,29,07,58,22.50
2021,06,29,07,59,22.60
2021,06,29,08,00,22.60
2021,06,29,08,01,22.70
2021,06,29,08,02,22.70
2021,06,29,08,03,22.80
2021,06,29,08,04,22.80
2021,06,29,08,05,22.90
2021,06,29,08,06,23.00
2021,06,29,08,07,23.10
2021,06,29,08,08,23.30
2021,06,29,08,09,23.30
2021,06,29,08,10,23.40
2021,06,29,08,11,23.50
2021,06,29,08,12,23.60
2021,06,29,08,13,23.70
2021,06,29,08,14,23.70
2021,06,29,08,15,23.70
2021,06,29,08,16,23.70
2021,06,29,08,17,23.70
2021,06,29,08,18,23.70
2021,06,29,08,19,23.70
2021,06,29,08,20,23.70
2021,06,29,08,21,23.60
2021,06,29,08,22,23.60
2021,06,29,08,23,23.50
2021,06,29,08,24,23.40
2021,06,29,08,25,23.40
2021,06,29,08,26,23.40
2021,06,29,08,27,23.40
2021,06,29,08,28,23.60
2021,06,29,08,29,23.60
2021,06,29,08,30,23.70
2021,06,29,08,31,23.70
2021,06,29,08,32,23.60
2021,06,29,08,33,23.60
2021,06,29,08,34,23.70
2021,06,29,08,35,23.70
2021,06,29,08,36,23.70
2021,06,29,08,37,23.70
2021,06,29,08,38,23.70
2021,06,29,08,39,23.70
2021,06,29,08,40,23.70
2021,06,29,08,41,23.70
2021,06,29,08,42,23.70
2021,06,29,08,43,23.70
2021,06,29,08,44,23.70
2021,06,29,08,45,23.60
2021,06,29,08,46,23.50
2021,06,29,08,47,23.40
2021,06,29,08,48,23.30
2021,06,29,08,49,23.30
2021,06,29,08,50,23.30
2021,06,29,08,51,23.30
2021,06,29,08,52,23.40
2021,06,29,08,53,23.40
2021,06,29,08,54,23.40
2021,06,29,08,55,23.50
2021,06,29,08,56,23.60
2021,06,29,08,57,23.60
2021,06,29,08,58,23.50
2021,06,29,08,59,23.30
2021,06,29,09,00,23.30
2021,06,29,09,01,23.20
2021,06,29,09,02,23.00
2021,06,29,09,03,22.90
2021,06,29,09,04,22.80
2021,06,29,09,05,22.80
2021,06,29,09,06,22.70
2021,06,29,09,07,22.60
2021,06,29,09,08,22.60
2021,06,29,09,09,22.50
2021,06,29,09,10,22.60
2021,06,29,09,11,22.60
2021,06,29,09,12,22.60
2021,06,29,09,13,22.70
2021,06,29,09,14,22.80
2021,06,29,09,15,22.80
2021,06,29,09,16,22.90
2021,06,29,09,17,22.90
2021,06,29,09,18,22.90
2021,06,29,09,19,22.90
2021,06,29,09,20,22.90
2021,06,29,09,21,22.90
2021,06,29,09,22,22.90
2021,06,29,09,23,22.90
2021,06,29,09,24,22.80
2021,06,29,09,25,22.80
2021,06,29,09,26,22.80
2021,06,29,09,27,22.80
2021,06,29,09,28,22.80
2021,06,29,09,29,22.90
2021,06,29,09,30,22.90
2021,06,29,09,31,22.90
2021,06,29,09,32,22.90
2021,06,29,09,33,23.00
2021,06,29,09,34,23.10
2021,06,29,09,35,23.20
2021,06,29,09,36,23.20
2021,06,29,09,37,23.30
2021,06,29,09,38,23.30
2021,06,29,09,39,23.30
2021,06,29,09,40,23.40
2021,06,29,09,41,23.50
2021,06,29,09,42,23.60
2021,06,29,09,43,23.60
2021,06,29,09,44,23.70
2021,06,29,09,45,23.70
2021,06,29,09,46,23.70
2021,06,29,09,47,23.80
2021,06,29,09,48,23.70
2021,06,29,09,49,23.80
2021,06,29,09,50,23.80
2021,06,29,09,51,23.90
2021,06,29,09,52,23.90
2021,06,29,09,53,24.00
2021,06,29,09,54,24.10
2021,06,29,09,55,24.10
2021,06,29,09,56,24.10
2021,06,29,09,57,24.20
2021,06,29,09,58,24.30
2021,06,29,09,59,24.30
2021,06,29,10,00,24.40
2021,06,29,10,01,24.50
2021,06,29,10,02,24.60
2021,06,29,10,03,24.70
2021,06,29,10,04,24.80
2021,06,29,10,05,24.90
2021,06,29,10,06,25.10
2021,06,29,10,07,25.30
2021,06,29,10,08,25.40
2021,06,29,10,09,25.60
2021,06,29,10,10,25.70
2021,06,29,10,11,25.70
2021,06,29,10,12,25.70
2021,06,29,10,13,25.70
2021,06,29,10,14,25.70
2021,06,29,10,15,25.80
2021,06,29,10,16,25.70
2021,06,29,10,17,25.80
2021,06,29,10,18,25.90
2021,06,29,10,19,25.90
2021,06,29,10,20,25.80
2021,06,29,10,21,25.80
2021,06,29,10,22,25.80
2021,06,29,10,23,25.90
2021,06,29,10,24,25.90
2021,06,29,10,25,25.90
2021,06,29,10,26,25.90
2021,06,29,10,27,26.00
2021,06,29,10,28,26.20
2021,06,29,10,29,26.30
2021,06,29,10,30,26.40
2021,06,29,10,31,26.40
2021,06,29,10,32,26.40
2021,06,29,10,33,26.40
2021,06,29,10,34,26.50
2021,06,29,10,35,26.60
2021,06,29,10,36,26.70
2021,06,29,10,37,26.70
2021,06,29,10,38,26.80
2021,06,29,10,39,26.80
2021,06,29,10,40,26.80
2021,06,29,10,41,26.80
2021,06,29,10,42,26.80
2021,06,29,10,43,26.90
2021,06,29,10,44,26.90
2021,06,29,10,45,26.90
2021,06,29,10,46,26.70
2021,06,29,10,47,26.50
2021,06,29,10,48,26.30
2021,06,29,10,49,26.10
2021,06,29,10,50,25.90
2021,06,29,10,51,25.80
2021,06,29,10,52,25.70
2021,06,29,10,53,25.60
2021,06,29,10,54,25.50
2021,06,29,10,55,25.40
2021,06,29,10,56,25.40
2021,06,29,10,57,25.40
2021,06,29,10,58,25.40
2021,06,29,10,59,25.30
2021,06,29,11,00,25.30
2021,06,29,11,01,25.20
2021,06,29,11,02,25.10
2021,06,29,11,03,25.10
2021,06,29,11,04,25.10
2021,06,29,11,05,25.10
2021,06,29,11,06,25.20
2021,06,29,11,07,25.20
2021,06,29,11,08,25.20
2021,06,29,11,09,25.20
2021,06,29,11,10,25.30
2021,06,29,11,11,25.30
2021,06,29,11,12,25.40
2021,06,29,11,13,25.40
2021,06,29,11,14,25.50
2021,06,29,11,15,25.50
2021,06,29,11,16,25.60
2021,06,29,11,17,25.60
2021,06,29,11,18,25.70
2021,06,29,11,19,25.80
2021,06,29,11,20,25.80
2021,06,29,11,21,25.80
2021,06,29,11,22,25.80
2021,06,29,11,23,25.80
2021,06,29,11,24,25.80
2021,06,29,11,25,25.80
2021,06,29,11,26,25.80
2021,06,29,11,27,25.80
2021,06,29,11,28,25.80
2021,06,29,11,29,25.90
2021,06,29,11,30,25.90
2021,06,29,11,31,25.90
2021,06,29,11,32,25.90
2021,06,29,11,33,25.90
2021,06,29,11,34,25.90
2021,06,29,11,35,25.90
2021,06,29,11,36,25.90
2021,06,29,11,37,26.00
2021,06,29,11,38,26.10
2021,06,29,11,39,26.10
2021,06,29,11,40,26.20
2021,06,29,11,41,26.20
2021,06,29,11,42,26.10
2021,06,29,11,43,26.10
2021,06,29,11,44,26.00
2021,06,29,11,45,25.90
2021,06,29,11,46,26.00
2021,06,29,11,47,26.10
2021,06,29,11,48,26.30
2021,06,29,11,49,26.30
2021,06,29,11,50,26.30
2021,06,29,11,51,26.40
2021,06,29,11,52,26.40
2021,06,29,11,53,26.40
2021,06,29,11,54,26.40
2021,06,29,11,55,26.40
2021,06,29,11,56,26.40
2021,06,29,11,57,26.40
2021,06,29,11,58,26.40
2021,06,29,11,59,26.50
2021,06,29,12,00,26.60
2021,06,29,12,01,26.60
2021,06,29,12,02,26.70
2021,06,29,12,03,26.60
2021,06,29,12,04,26.60
2021,06,29,12,05,26.60
2021,06,29,12,06,26.60
2021,06,29,12,07,26.60
2021,06,29,12,08,26.60
2021,06,29,12,09,26.60
2021,06,29,12,10,26.60
2021,06,29,12,11,26.80
2021,06,29,12,12,26.90
2021,06,29,12,13,27.00
2021,06,29,12,14,27.10
2021,06,29,12,15,27.20
2021,06,29,12,16,27.20
2021,06,29,12,17,27.20
2021,06,29,12,18,27.20
2021,06,29,12,19,27.20
2021,06,29,12,20,27.30
2021,06,29,12,21,27.30
2021,06,29,12,22,27.30
2021,06,29,12,23,27.30
2021,06,29,12,24,27.30
2021,06,29,12,25,27.30
2021,06,29,12,26,27.40
2021,06,29,12,27,27.50
2021,06,29,12,28,27.50
2021,06,29,12,29,27.40
2021,06,29,12,30,27.40
2021,06,29,12,31,27.40
2021,06,29,12,32,27.30
2021,06,29,12,33,27.30
2021,06,29,12,34,27.50
2021,06,29,12,35,27.60
2021,06,29,12,36,27.70
2021,06,29,12,37,27.80
2021,06,29,12,38,27.90
2021,06,29,12,39,27.90
2021,06,29,12,40,28.00
2021,06,29,12,41,28.00
2021,06,29,12,42,28.20
2021,06,29,12,43,28.30
2021,06,29,12,44,28.40
2021,06,29,12,45,28.50
2021,06,29,12,46,28.60
2021,06,29,12,47,28.70
2021,06,29,12,48,28.70
2021,06,29,12,49,28.70
2021,06,29,12,50,28.80
2021,06,29,12,51,28.70
2021,06,29,12,52,28.70
2021,06,29,12,53,28.70
2021,06,29,12,54,28.90
2021,06,29,12,55,28.90
2021,06,29,12,56,28.90
2021,06,29,12,57,28.90
2021,06,29,12,58,28.90
2021,06,29,12,59,29.00
2021,06,29,13,00,29.10
2021,06,29,13,01,29.00
2021,06,29,13,02,28.90
2021,06,29,13,03,28.90
2021,06,29,13,04,29.00
2021,06,29,13,05,29.20
2021,06,29,13,06,29.40
2021,06,29,13,07,29.60
2021,06,29,13,08,29.50
2021,06,29,13,09,29.40
2021,06,29,13,10,29.40
2021,06,29,13,11,29.40
2021,06,29,13,12,29.40
2021,06,29,13,13,29.30
2021,06,29,13,14,29.30
2021,06,29,13,15,29.30
2021,06,29,13,16,29.10
2021,06,29,13,17,29.00
2021,06,29,13,18,28.90
2021,06,29,13,19,28.90
2021,06,29,13,20,28.90
2021,06,29,13,21,28.90
2021,06,29,13,22,28.90
2021,06,29,13,23,28.90
2021,06,29,13,24,29.10
2021,06,29,13,25,29.30
2021,06,29,13,26,29.40
2021,06,29,13,27,29.40
2021,06,29,13,28,29.60
2021,06,29,13,29,29.60
2021,06,29,13,30,29.70
2021,06,29,13,31,29.60
2021,06,29,13,32,29.50
2021,06,29,13,33,29.50
2021,06,29,13,34,29.40
2021,06,29,13,35,29.40
2021,06,29,13,36,29.40
2021,06,29,13,37,29.30
2021,06,29,13,38,29.30
2021,06,29,13,39,29.40
2021,06,29,13,40,29.50
2021,06,29,13,41,29.60
2021,06,29,13,42,29.70
2021,06,29,13,43,29.60
2021,06,29,13,44,29.70
2021,06,29,13,45,29.70
2021,06,29,13,46,29.60
2021,06,29,13,47,29.60
2021,06,29,13,48,29.70
2021,06,29,13,49,29.70
2021,06,29,13,50,29.80
2021,06,29,13,51,29.70
2021,06,29,13,52,29.70
2021,06,29,13,53,29.60
2021,06,29,13,54,29.60
2021,06,29,13,55,29.60
2021,06,29,13,56,29.70
2021,06,29,13,57,29.70
2021,06,29,13,58,29.60
2021,06,29,13,59,29.70
2021,06,29,14,00,29.80
2021,06,29,14,01,29.90
2021,06,29,14,02,29.90
2021,06,29,14,03,30.00
2021,06,29,14,04,30.10
2021,06,29,14,05,30.20
2021,06,29,14,06,30.20
2021,06,29,14,07,30.30
2021,06,29,14,08,30.40
2021,06,29,14,09,30.50
2021,06,29,14,10,30.60
2021,06,29,14,11,30.60
2021,06,29,14,12,30.70
2021,06,29,14,13,30.80
2021,06,29,14,14,30.80
2021,06,29,14,15,31.00
2021,06,29,14,16,31.00
2021,06,29,14,17,31.00
2021,06,29,14,18,30.90
2021,06,29,14,19,30.90
2021,06,29,14,20,30.90
2021,06,29,14,21,30.90
2021,06,29,14,22,30.90
2021,06,29,14,23,31.10
2021,06,29,14,24,31.10
2021,06,29,14,25,31.10
2021,06,29,14,26,31.20
2021,06,29,14,27,31.30
2021,06,29,14,28,31.30
2021,06,29,14,29,31.30
2021,06,29,14,30,31.20
2021,06,29,14,31,31.20
2021,06,29,14,32,31.20
2021,06,29,14,33,31.30
2021,06,29,14,34,31.40
2021,06,29,14,35,31.40
2021,06,29,14,36,31.30
2021,06,29,14,37,31.50
2021,06,29,14,38,31.60
2021,06,29,14,39,31.80
2021,06,29,14,40,31.90
2021,06,29,14,41,31.90
2021,06,29,14,42,31.80
2021,06,29,14,43,31.80
2021,06,29,14,44,31.90
2021,06,29,14,45,32.00
2021,06,29,14,46,32.10
2021,06,29,14,47,32.10
2021,06,29,14,48,32.20
2021,06,29,14,49,32.20
2021,06,29,14,50,32.30
2021,06,29,14,51,32.30
2021,06,29,14,52,32.30
2021,06,29,14,53,32.30
2021,06,29,14,54,32.30
2021,06,29,14,55,32.20
2021,06,29,14,56,32.20
2021,06,29,14,57,32.10
2021,06,29,14,58,32.00
2021,06,29,14,59,31.90
2021,06,29,15,00,31.80
2021,06,29,15,01,31.70
2021,06,29,15,02,31.60
2021,06,29,15,03,31.60
2021,06,29,15,04,31.60
2021,06,29,15,05,31.70
2021,06,29,15,06,31.90
2021,06,29,15,07,32.10
2021,06,29,15,08,32.20
2021,06,29,15,09,32.30
2021,06,29,15,10,32.30
2021,06,29,15,11,32.30
2021,06,29,15,12,32.40
2021,06,29,15,13,32.40
2021,06,29,15,14,32.40
2021,06,29,15,15,32.40
2021,06,29,15,16,32.40
2021,06,29,15,17,32.30
2021,06,29,15,18,32.20
2021,06,29,15,19,32.20
2021,06,29,15,20,32.20
2021,06,29,15,21,32.30
2021,06,29,15,22,32.40
2021,06,29,15,23,32.40
2021,06,29,15,24,32.50
2021,06,29,15,25,32.60
2021,06,29,15,26,32.60
2021,06,29,15,27,32.50
2021,06,29,15,28,32.50
2021,06,29,15,29,32.60
2021,06,29,15,30,32.60
2021,06,29,15,31,32.50
2021,06,29,15,32,32.30
2021,06,29,15,33,32.20
2021,06,29,15,34,32.10
2021,06,29,15,35,31.90
2021,06,29,15,36,31.80
2021,06,29,15,37,31.70
2021,06,29,15,38,31.60
2021,06,29,15,39,31.40
2021,06,29,15,40,31.30
2021,06,29,15,41,31.30
2021,06,29,15,42,31.30
2021,06,29,15,43,31.30
2021,06,29,15,44,31.30
2021,06,29,15,45,31.20
2021,06,29,15,46,31.20
2021,06,29,15,47,31.00
2021,06,29,15,48,30.90
2021,06,29,15,49,31.00
2021,06,29,15,50,31.10
2021,06,29,15,51,31.20
2021,06,29,15,52,31.40
2021,06,29,15,53,31.60
2021,06,29,15,54,31.60
2021,06,29,15,55,31.80
2021,06,29,15,56,31.80
2021,06,29,15,57,31.70
2021,06,29,15,58,31.60
2021,06,29,15,59,31.60
2021,06,29,16,00,31.60
2021,06,29,16,01,31.70
2021,06,29,16,02,31.70
2021,06,29,16,03,31.70
2021,06,29,16,04,31.70
2021,06,29,16,05,31.80
2021,06,29,16,06,31.90
2021,06,29,16,07,32.00
2021,06,29,16,08,32.10
2021,06,29,16,09,32.10
2021,06,29,16,10,32.10
2021,06,29,16,11,32.20
2021,06,29,16,12,32.20
2021,06,29,16,13,32.20
2021,06,29,16,14,32.30
2021,06,29,16,15,32.30
2021,06,29,16,16,32.20
2021,06,29,16,17,32.10
2021,06,29,16,18,32.00
2021,06,29,16,19,31.80
2021,06,29,16,20,31.70
2021,06,29,16,21,31.60
2021,06,29,16,22,31.60
2021,06,29,16,23,31.60
2021,06,29,16,24,31.60
2021,06,29,16,25,31.70
2021,06,29,16,26,31.70
2021,06,29,16,27,31.60
2021,06,29,16,28,31.50
2021,06,29,16,29,31.50
2021,06,29,16,30,31.60
2021,06,29,16,31,31.60
2021,06,29,16,32,31.70
2021,06,29,16,33,31.70
2021,06,29,16,34,31.90
2021,06,29,16,35,32.00
2021,06,29,16,36,32.10
2021,06,29,16,37,32.20
2021,06,29,16,38,32.30
2021,06,29,16,39,32.20
2021,06,29,16,40,32.10
2021,06,29,16,41,32.00
2021,06,29,16,42,31.90
2021,06,29,16,43,31.80
2021,06,29,16,44,31.60
2021,06,29,16,45,31.50
2021,06,29,16,46,31.40
2021,06,29,16,47,31.30
2021,06,29,16,48,31.40
2021,06,29,16,49,31.40
2021,06,29,16,50,31.50
2021,06,29,16,51,31.50
2021,06,29,16,52,31.40
2021,06,29,16,53,31.50
2021,06,29,16,54,31.50
2021,06,29,16,55,31.40
2021,06,29,16,56,31.30
2021,06,29,16,57,31.30
2021,06,29,16,58,31.20
2021,06,29,16,59,31.20
2021,06,29,17,00,31.20
2021,06,29,17,01,31.20
2021,06,29,17,02,31.20
2021,06,29,17,03,31.20
2021,06,29,17,04,31.10
2021,06,29,17,05,31.00
2021,06,29,17,06,30.90
2021,06,29,17,07,30.80
2021,06,29,17,08,30.80
2021,06,29,17,09,30.80
2021,06,29,17,10,30.90
2021,06,29,17,11,30.90
2021,06,29,17,12,30.90
2021,06,29,17,13,30.80
2021,06,29,17,14,30.80
2021,06,29,17,15,30.80
2021,06,29,17,16,30.70
2021,06,29,17,17,30.60
2021,06,29,17,18,30.60
2021,06,29,17,19,30.60